sat.trackr.live / text

‹ back to catalog

2024-095A

NORAD 59810 · 2024-095A

PAYLOAD ACTIVE UNKNOWN

§ Identity

Operator
Country
PRC
Launch date
2024-05-21
Launch site
JSC
Launch vehicle
Mass (kg)
RCS (m²)

External: N2YO · Heavens-Above · Gunter

§ Orbital elements

Epoch: 2026-09-22T22:59:13.212384Z

Period
95.34 min
Inclination
97.5282°
Eccentricity
0.0004506
Mean motion
15.10316227 rev/d
Perigee alt
532.1 km
Apogee alt
538.3 km
Semi-major
6,913.4 km
B*
1.8419e-4
RAAN
343.3476°
Arg perigee
97.3041°
Mean anomaly
262.8701°
Rev number
12,890

§ Raw data

2024-095A1 59810U 24095A   26265.95779181  .00002956  00000+0  18419-3 0  99982 59810  97.5282 343.3476 0004506  97.3041 262.8701 15.10316227128901

JSON: /api/v1/satellites/59810 · /tle

For live sub-satellite position, see the globe view (requires WebGL).

§ Visibility from observer

Set your observer location to see the next 7 days of passes ≥ 10°. The values pass through the URL so the page stays shareable.

No JS? Fill the form by hand. The geolocation button needs JavaScript.